Regional Weather Roundup
Issued by NWS Tiyan, Guam

Home | Current Version | Previous Version | Text Only | Print | Product List | Glossary On
Versions: 1 2 3 4 5 6 7 8 9 10 11 12 13 14 15 16 17 18 19 20 21 22 23 24 25 26 27
000
ASGM40 PGUM 210512
RWRGUM
WEATHER ROUNDUP FOR THE MARIANAS
NATIONAL WEATHER SERVICE TIYAN GU
300 PM CHST MON AUG 21 2017

GUZ001>004-210600-
MARIANA ISLANDS-

CITY           SKY/WX    TMP DP  RH WIND       PRES   REMARKS
GUAM AIRPORT   MOSUNNY   84  75  74 SE10      29.79F HX  92
ANDERSEN AFB   MOSUNNY   82  75  78 S10       29.84F
ROTA AIRPORT   PTSUNNY   82  75  78 S9        29.78F
TINIAN AP      PTSUNNY   86  77  74 S7        29.76F HX  97
SAIPAN AP      MOSUNNY   90  77  66 S9        29.78F HX 102

$$





USA.gov is the U.S. government's official web portal to all federal, state and local government web resources and services.